www.pogodaiklimat.ru
ПОГОДА в Кордова обсерватории

Архив погоды в Кордова обсерватории (Аргентина)

Время
(UTC), дата
10 6.04
11 6.04
12 6.04
13 6.04
14 6.04
15 6.04
16 6.04
17 6.04
18 6.04
19 6.04
20 6.04
21 6.04
22 6.04
23 6.04
00 7.04
01 7.04
02 7.04
03 7.04
04 7.04
05 7.04
06 7.04
07 7.04
08 7.04
09 7.04
10 7.04
11 7.04
12 7.04
13 7.04
14 7.04
15 7.04
16 7.04
17 7.04
18 7.04
19 7.04
20 7.04
21 7.04
22 7.04
23 7.04
00 8.04
01 8.04
02 8.04
03 8.04
04 8.04
05 8.04
06 8.04
07 8.04
08 8.04
09 8.04
10 8.04
11 8.04
12 8.04
13 8.04
14 8.04
15 8.04
16 8.04
17 8.04
18 8.04
19 8.04
20 8.04
21 8.04
22 8.04
23 8.04
00 9.04
01 9.04
02 9.04
03 9.04
04 9.04
05 9.04
06 9.04
07 9.04
08 9.04
09 9.04
10 9.04
11 9.04
12 9.04
13 9.04
14 9.04
15 9.04
16 9.04
17 9.04
18 9.04
19 9.04
20 9.04
21 9.04
22 9.04
23 9.04
00 10.04
01 10.04
02 10.04
03 10.04
04 10.04
05 10.04
06 10.04
07 10.04
08 10.04
09 10.04
10 10.04
11 10.04
12 10.04
13 10.04
14 10.04
15 10.04
16 10.04
17 10.04
18 10.04
19 10.04
20 10.04
21 10.04
22 10.04
23 10.04
00 11.04
01 11.04
02 11.04
03 11.04
04 11.04
05 11.04
06 11.04
07 11.04
08 11.04
09 11.04
10 11.04
11 11.04
12 11.04
13 11.04
14 11.04
15 11.04
16 11.04
17 11.04
18 11.04
19 11.04
20 11.04
21 11.04
22 11.04
23 11.04
00 12.04
01 12.04
02 12.04
03 12.04
04 12.04
05 12.04
06 12.04
07 12.04
08 12.04
09 12.04
11 12.04
12 12.04
13 12.04
14 12.04
15 12.04
16 12.04
17 12.04
18 12.04
19 12.04
20 12.04
21 12.04
22 12.04
23 12.04
00 13.04
01 13.04
02 13.04
03 13.04
04 13.04
05 13.04
06 13.04
07 13.04
Ветер
(напр.,м/с)
Видим. Явления Облачность Т
(С)
Тd
(С)
f
(%)
Тe
(С)
Тes
(С)
Комфортность P
(гПа)
Po
(гПа)
Тmin
(С)
Tmax
(С)
R
(мм)
R24
(мм)
S
(см)
СВ 2 9000 м слаб. морось 10/10 450 м
[St]
+19.0 +18.2 95 +21 +21 комфорт 1012.7 964.8
В 2 7000 м слаб. морось 10/10 450 м
[St]
+18.8 +18.2 96 +21 +21 комфорт 1013.1 965.0
В 3 7000 м гроза, ливневой дождь {морось} 10/10 450 м
[Cb cap]
+18.4 +17.9 97 +19 +19 1012.9 964.8 +17.8 +24.4 8
В 3 7000 м гроза, ливневой дождь 10/4 900 м
[Cb cap As op]
+18.8 +18.2 96 +20 +21 1013.6 965.4
В 4 7000 м гроза, ливневой дождь 10/4 600 м
[Cb cap As op]
+18.6 +17.8 95 +20 +20 1013.0 964.8
СВ 3 6000 м дождь {гроза} 10/6 450 м
[St As op]
+18.5 +17.7 95 +20 +20 1013.1 964.9
В 2 7000 м слаб. дождь 10/6 450 м
[St As op]
+18.7 +17.9 95 +21 +22 комфорт 1013.3 965.0
В 2 6000 м слаб. дождь 10/6 450 м
[St As op]
+19.2 +18.4 95 +22 +23 комфорт 1012.7 964.6
Ю 2 5000 м гроза, ливневой дождь 10/6 450 м
[Cb cap As op]
+18.7 +18.1 96 +20 +21 1012.5 964.2 29
ЮВ 5 6000 м гроза, ливневой дождь 10/6 450 м
[Cb cap As op]
+18.1 +17.5 96 +18 +18 1013.4 964.9
ЮВ 5 6000 м слаб. морось {гроза} 10/10 300 м
[St]
+16.4 +15.7 96 +16 +16 1014.1 965.4
В 4 6000 м слаб. морось {гроза} 10/10 300 м
[St]
+15.8 +15.1 96 +15 +15 1014.9 966.1
ЮВ 3 6000 м слаб. морось 10/10 300 м
[St]
+15.4 +14.7 96 +15 +15 1015.7 966.8
ЮЗ 1 6000 м слаб. морось 10/10 300 м
[St]
+15.4 +14.9 97 +16 +16 1016.8 967.8
Ю 2 10 км в посл. час морось {гроза} 10/10 450 м
[St]
+15.2 +14.9 98 +15 +15 1016.5 967.4 +14.9 +19.2 3
ЮЗ 2 10 км {морось} 6/6 900 м
[Sc]
+15.5 +14.7 95 +16 +16 1015.7 966.8
ЮЗ 1 10 км 1/1 900 м
[Sc]
+15.3 +14.6 96 +16 +16 1015.6 966.6
ЮВ 3 10 км 1/1 900 м
[Sc]
+15.6 +14.9 96 +15 +15 1015.3 966.4
ЮВ 3 10 км 1/1 900 м
[Sc]
+15.2 +14.5 96 +15 +15 1015.0 966.1
Ю 1 10 км 1/1 900 м
[Sc]
+14.7 +14.0 96 +15 +15 1015.1 966.2
ЮЗ 2 10 км ясно +14.1 +13.8 98 +14 +14 1015.0 966.0
ЮЗ 1 10 км ясно +14.1 +13.8 98 +14 +14 1014.5 965.4
ЮВ 2 5000 м дымка 10/10 300 м
[St]
+13.9 +13.2 96 +13 +13 1014.8 965.6
ЮВ 2 5000 м дымка 10/10 300 м
[St]
+14.6 +14.1 97 +14 +14 1015.0 965.8
ЮВ 1 5000 м дымка 10/10 300 м
[St]
+14.8 +14.3 97 +15 +15 1015.3 966.1
ЮВ 1 2000 м дымка 10/10 240 м
[St]
+14.9 +14.6 98 +15 +15 1015.9 966.6
ЮВ 1 3000 м дымка 10/10 240 м
[St]
+15.0 +14.5 97 +15 +15 1016.7 967.4 +13.8 +15.6 32
ЮВ 1 5000 м 10/10 300 м
[St]
+15.5 +15.0 97 +17 +17 1016.7 967.4
ЮВ 3 8000 м дымка 10/10 450 м
[St]
+16.4 +15.2 93 +16 +16 1017.2 968.0
ЮВ 1 8000 м дымка 10/10 450 м
[St]
+17.0 +15.8 93 +18 +18 1017.6 968.4
Ю 1 10 км 10/10 540 м
[St]
+18.8 +16.0 84 +21 +21 комфорт 1016.4 967.4
ЮВ 2 10 км 3/3 750 м
[Cu hum]
+21.0 +17.0 78 +26 +35 душно 1015.4 966.6
ЮВ 4 10 км 3/3 750 м
[Cu hum]
+21.3 +17.5 79 +25 +31 комфорт 1014.5 965.7
ЮВ 4 10 км 1/1 750 м
[Cu hum]
+22.4 +17.2 72 +27 +32 душно 1014.1 965.4
ЮВ 3 10 км ясно +21.7 +17.3 76 +26 +29 душно 1014.3 965.4
ЮВ 4 10 км ясно +20.8 +16.6 77 +24 +25 комфорт 1014.0 965.2
В 2 10 км ясно +19.4 +16.7 84 +22 +22 комфорт 1014.3 965.4
В 3 10 км 1/1 750 м
[Sc]
+18.3 +16.0 86 +19 +19 1014.9 965.8
В 2 10 км 9/9 750 м
[Sc]
+17.6 +15.6 88 +18 +18 1015.5 966.4 +15.0 +22.5
Ю 1 8000 м дымка 10/10 750 м
[Sc]
+17.1 +15.3 89 +18 +18 1015.7 966.6
Ю 1 8000 м дымка 10/10 750 м
[Sc]
+17.1 +16.1 94 +18 +18 1015.8 966.8
Ю 1 8000 м дымка 9/9 600 м
[Sc]
+16.4 +15.6 95 +17 +17 1015.6 966.6
Ю 2 10 км дымка 8/8 600 м
[Sc]
+15.9 +15.2 96 +16 +16 1014.9 966.0
Ю 1 5000 м дымка 4/4 750 м
[Sc]
+15.4 +14.6 95 +16 +16 1014.3 965.6
Ю 1 8000 м дымка ясно +14.8 +14.3 97 +16 +16 1013.6 964.9
Ю 1 6000 м дымка ясно +14.5 +14.0 97 +16 +16 1012.2 963.7
Ю 1 6000 м дымка ясно +13.4 +11.8 90 +13 +13 1011.9 963.2
Ю 1 6000 м дымка ясно +13.2 +11.6 90 +13 +13 1011.8 963.0
Ю 1 8000 м дымка ясно +13.4 +11.8 90 +14 +14 1011.8 962.9
ЮЗ 1 10 км ясно +12.8 +10.8 88 +14 +14 1011.9 963.0
СВ 2 10 км ясно +18.6 +11.3 62 +20 +22 1011.8 963.2 +12.4 +18.8
В 2 10 км ясно +20.4 +14.2 68 +24 +29 комфорт 1011.8 963.3
СВ 3 10 км ясно +22.4 +14.7 62 +26 +34 жарко 1011.3 963.0
СВ 3 10 км ясно +23.4 +15.1 60 +28 +38 душно 1010.9 962.6
В 4 10 км ясно +24.0 +15.1 57 +27 +35 жарко 1010.1 961.8
В 3 10 км ясно +24.6 +15.5 57 +28 +39 душно 1009.4 961.2
В 3 10 км ясно +24.6 +16.2 60 +28 +36 душно 1008.5 960.2
В 3 10 км ясно +24.8 +15.9 58 +28 +34 жарко 1008.0 959.8
В 4 10 км ясно +24.2 +16.1 61 +28 +30 душно 1007.9 959.6
В 3 10 км ясно +23.2 +15.6 62 +27 +28 душно 1007.7 959.3
В 3 10 км ясно +21.4 +16.1 72 +25 +25 комфорт 1008.0 959.4
В 3 10 км ясно +20.4 +15.7 74 +24 +24 комфорт 1008.9 960.2
СВ 2 10 км ясно +19.8 +15.6 77 +23 +23 комфорт 1008.5 960.2 +18.6 +24.8
СВ 1 10 км ясно +19.4 +15.5 78 +22 +22 комфорт 1008.6 960.5
ЮВ 1 10 км ясно +19.0 +15.4 80 +21 +21 комфорт 1008.8 960.8
В 2 10 км ясно +18.6 +15.3 81 +20 +20 1009.2 961.2
В 1 10 км ясно +18.4 +15.3 82 +20 +20 1009.7 961.7
ЮЗ 2 10 км ясно +17.8 +15.3 85 +18 +18 1009.8 961.8
Ю 3 10 км ясно +17.6 +15.3 86 +18 +18 1010.0 962.0
Ю 2 6000 м дымка ясно +17.3 +15.3 88 +18 +18 1010.2 962.2
ЮВ 2 1000 м дымка 4/4 300 м
[St]
+17.0 +15.2 89 +18 +18 1010.3 962.2
ЮЗ 3 500 м туман, небо видно 6/6 240 м
[St]
+16.0 +15.3 96 +15 +15 1011.8 963.4
ЮВ 2 1200 м в посл. час туман туман 4/4 300 м
[St]
+15.8 +15.1 96 +16 +16 1012.6 964.1
ЮЗ 2 200 м туман, небо видно 10/10 30 м
[St]
+15.5 +15.2 98 +16 +16 1014.2 965.4
ЮЗ 1 10 км в посл. час туман ясно +17.2 +15.4 89 +18 +20 1014.6 965.8 +15.2 +20.0
Ю 2 10 км {туман} ясно +20.8 +16.6 77 +25 +30 комфорт 1015.1 966.6
Ю 4 10 км ясно +23.6 +15.4 60 +27 +33 жарко 1015.1 966.9
ЮВ 4 10 км ясно +24.4 +15.8 59 +28 +36 душно 1014.9 966.6
ЮВ 3 10 км ясно +26.6 +16.8 55 +30 +41 душно 1014.3 966.2
Ю 3 10 км 4/1 450 м
[Cu hum Cs]
+27.4 +16.6 52 +31 +40 душно 1013.3 965.4
ЮВ 4 10 км 4/0
[Ac As Cs]
+26.9 +17.7 57 +31 +37 душно 1012.6 964.6
Ю 6 10 км 4/3 1200 м
[Sc Cs]
+25.3 +17.2 61 +29 +31 душно 1012.8 964.6
Ю 5 10 км 9/5 960 м
[Sc Ac As]
+22.8 +16.3 67 +27 +28 душно 1013.3 964.9
Ю 4 10 км 10/10 600 м
[Sc]
+20.6 +16.3 76 +24 +24 комфорт 1014.3 965.6
Ю 4 10 км 10/10 480 м
[Sc]
+19.4 +16.3 82 +21 +21 комфорт 1014.8 966.0
Ю 4 10 км 10/10 450 м
[Sc]
+19.3 +16.7 85 +21 +21 комфорт 1015.4 966.5
Ю 3 10 км 10/10 480 м
[Sc]
+19.2 +16.5 84 +21 +21 комфорт 1015.8 967.0 +17.2 +27.4
ЮЗ 4 10 км 10/10 480 м
[Sc]
+19.4 +16.3 82 +21 +21 комфорт 1015.9 967.4
ЮЗ 3 10 км 10/10 480 м
[Sc]
+19.6 +15.9 79 +22 +22 комфорт 1015.9 967.7
ЮЗ 4 10 км 8/8 750 м
[Sc]
+19.7 +15.8 78 +22 +22 комфорт 1016.1 967.8
Ю 3 10 км 9/9 800 м
[Sc]
+18.9 +14.7 77 +20 +20 1016.4 968.2
Ю 3 10 км 10/10 600 м
[Sc]
+18.2 +14.3 78 +19 +19 1016.2 968.2
Ю 3 10 км 10/10 840 м
[Sc]
+17.8 +14.4 80 +18 +18 1016.2 968.1
Ю 3 10 км 10/10 600 м
[Sc]
+17.4 +14.5 83 +18 +18 1015.9 967.6
ЮЗ 4 10 км 10/10 600 м
[Sc]
+17.2 +14.5 84 +17 +17 1015.8 967.3
Ю 3 10 км 10/10 600 м
[Sc]
+17.2 +14.5 84 +17 +17 1016.2 967.4
Ю 3 10 км 10/10 480 м
[Sc]
+16.9 +14.5 86 +17 +17 1016.9 968.1
Ю 4 10 км 10/10 450 м
[St]
+16.6 +14.4 87 +16 +16 1017.5 968.6
Ю 3 10 км 10/10 450 м
[St]
+16.3 +14.6 90 +16 +16 1018.7 969.7 +16.0 +20.0
Ю 3 10 км 10/10 450 м
[St]
+15.9 +14.5 91 +15 +15 1019.6 970.6
Ю 3 10 км 10/10 600 м
[St]
+15.9 +13.8 87 +15 +15 1019.7 970.6
Ю 4 9000 м слаб. дождь 10/6 600 м
[Frnb As op]
+16.0 +13.8 87 +15 +16 1019.7 970.6
Ю 3 8000 м морось {дождь} 10/8 450 м
[Frnb As op]
+15.0 +14.1 94 +14 +15 1019.9 970.6
Ю 4 9000 м слаб. морось 10/10 450 м
[Frnb]
+14.8 +13.6 93 +13 +13 1019.7 970.5
Ю 5 9000 м слаб. морось {дождь} 10/10 450 м
[Frnb]
+13.8 +12.7 93 +12 +12 1019.8 970.5 0.0
Ю 4 8000 м морось 10/10 450 м
[Frnb]
+12.7 +11.6 93 +11 +11 1020.3 970.8
Ю 4 8000 м морось 10/10 450 м
[Frnb]
+11.8 +10.9 94 +9 +9 1021.4 971.8
Ю 4 9000 м слаб. морось 10/10 450 м
[Frnb]
+11.6 +10.7 94 +9 +9 1022.0 972.2
Ю 3 8000 м морось 10/10 450 м
[Frnb]
+10.9 +10.1 95 +9 +9 1022.8 973.0
Ю 3 8000 м морось 10/10 450 м
[Frnb]
+10.0 +9.2 95 +8 +8 1023.9 973.8
Ю 4 8000 м морось 10/10 450 м
[Frnb]
+10.2 +9.6 96 +8 +8 1024.3 974.2 +9.6 +16.3 1
Ю 4 10 км в посл. час морось 10/10 450 м
[Frnb]
+10.3 +9.5 95 +7 +7 1025.1 975.0
Ю 4 10 км {морось} 10/10 450 м
[Frnb]
+10.2 +9.2 94 +7 +7 1025.5 975.4
Ю 4 10 км {морось} 10/10 450 м
[Frnb]
+10.0 +8.6 91 +7 +7 1025.2 975.0
Ю 3 10 км 10/10 600 м
[St]
+9.8 +8.4 91 +7 +7 1025.1 974.9
Ю 2 10 км 10/10 600 м
[St]
+10.0 +8.4 90 +8 +8 1025.0 974.8
Ю 3 10 км в посл. час морось 10/10 600 м
[St]
+10.0 +9.2 95 +8 +8 1025.2 974.6 0.0
Ю 3 10 км {морось} 10/10 600 м
[St]
+10.0 +9.0 93 +8 +8 1024.2 973.8
Ю 3 10 км 10/10 600 м
[St]
+10.0 +9.0 93 +8 +8 1023.7 973.3
Ю 3 10 км 10/10 600 м
[St]
+9.8 +8.8 93 +7 +7 1023.7 973.3
Ю 3 10 км 10/10 600 м
[St]
+10.2 +9.6 96 +8 +8 1023.8 973.4
Ю 3 10 км 10/10 600 м
[St]
+10.4 +9.0 91 +8 +8 1024.2 973.7
Ю 3 10 км 10/10 600 м
[St]
+10.5 +9.1 91 +8 +8 1024.8 974.2 +9.4 +10.5 1
Ю 3 8000 м слаб. морось 10/10 450 м
[St]
+11.0 +9.3 89 +9 +9 1025.2 974.6
Ю 3 9000 м слаб. морось 10/10 450 м
[St]
+11.3 +9.6 89 +9 +9 1025.1 974.6
Ю 3 10 км в посл. час морось 10/10 540 м
[St]
+12.1 +9.6 85 +11 +11 1024.4 974.0
Ю 3 10 км {морось} 10/10 600 м
[St]
+13.3 +9.5 78 +12 +12 1023.7 973.4
Ю 3 10 км 10/10 750 м
[Sc]
+14.0 +9.9 76 +13 +13 1022.9 972.8
ЮЗ 3 10 км {морось} 10/10 750 м
[Sc]
+14.4 +10.3 76 +13 +13 1022.1 972.0 0.2
Ю 2 10 км 10/10 750 м
[Sc]
+14.9 +10.3 74 +15 +15 1021.5 971.4
Ю 3 10 км 10/10 750 м
[Sc]
+15.1 +10.3 73 +15 +15 1021.5 971.4
Ю 3 10 км 10/10 750 м
[Sc]
+14.4 +10.5 77 +13 +13 1021.8 971.7
Ю 3 10 км 10/10 900 м
[Sc]
+14.2 +10.7 79 +13 +13 1021.7 971.7
ЮЗ 3 10 км 10/10 900 м
[Sc]
+13.7 +10.8 83 +13 +13 1022.3 972.2
ЮЗ 2 10 км 10/10 900 м
[Sc]
+13.1 +11.3 89 +12 +12 1022.6 972.4 +10.5 +15.1
ЮЗ 2 10 км 10/10 900 м
[Sc]
+13.8 +10.9 83 +13 +13 1023.0 972.9
ЮЗ 2 10 км 10/10 900 м
[Sc]
+14.3 +10.8 79 +14 +14 1023.1 973.0
ЮЗ 2 9000 м слаб. морось 10/10 450 м
[St]
+13.7 +11.9 89 +13 +13 1023.3 973.3
Ю 3 8000 м слаб. морось 10/10 450 м
[St]
+13.4 +12.3 93 +12 +12 1022.8 972.9
Ю 3 8000 м слаб. морось 10/10 450 м
[St]
+13.2 +12.3 94 +12 +12 1022.4 972.6
Ю 3 8000 м слаб. морось 10/10 450 м
[St]
+13.0 +12.3 96 +11 +11 1022.2 972.4 0.8
Ю 3 8000 м слаб. морось 10/10 450 м
[St]
+12.9 +12.4 97 +11 +11 1021.7 971.8
Ю 3 8000 м слаб. морось 10/10 450 м
[St]
+12.9 +12.2 96 +11 +11 1020.8 971.0
Ю 3 8000 м слаб. морось 10/10 450 м
[St]
+12.8 +12.3 97 +11 +11 1020.6 970.8
ЮВ 3 7000 м слаб. морось 10/10 450 м
[St]
+12.6 +12.1 97 +11 +11 1020.6 970.8
Ю 3 8000 м слаб. морось 10/10 450 м
[St]
+12.8 +12.1 96 +11 +11 1020.9 971.0 +12.4 +14.3 2
Ю 3 8000 м слаб. морось 10/10 450 м
[St]
+12.9 +12.2 96 +12 +12 1020.6 970.8
Ю 2 5000 м морось 10/10 300 м
[St]
+13.0 +12.5 97 +12 +12 1020.5 970.8
Ю 3 7000 м морось 10/10 300 м
[St]
+13.4 +12.7 96 +12 +12 1020.2 970.5
Ю 3 7000 м морось 10/10 300 м
[St]
+13.9 +12.8 93 +13 +13 1019.5 969.8
Ю 3 7000 м морось 10/10 300 м
[St]
+14.5 +13.1 91 +13 +13 1018.6 969.0
Ю 3 7000 м морось 10/10 300 м
[St]
+14.3 +13.6 96 +13 +13 1017.9 968.2 9
Ю 2 7000 м морось 10/10 300 м
[St]
+14.4 +13.7 96 +14 +14 1017.4 967.8
Ю 3 5000 м дождь {морось} 10/10 300 м
[St]
+14.4 +13.2 92 +14 +14 1017.2 967.6
Ю 3 7000 м слаб. дождь {морось} 10/10 300 м
[St]
+14.0 +13.5 97 +13 +13 1017.1 967.4
ЮВ 3 8000 м слаб. дождь 10/10 300 м
[St]
+13.8 +12.9 94 +13 +13 1017.4 967.7
Ю 3 7000 м слаб. морось {дождь} 10/10 300 м
[St]
+13.7 +13.0 96 +12 +12 1017.9 968.2
Ю 2 8000 м слаб. морось {дождь} 10/10 300 м
[St]
+13.4 +12.9 97 +13 +13 1018.6 968.9 +12.8 +14.5 10
Ю 3 8000 м слаб. морось 10/10 300 м
[St]
+13.4 +12.9 97 +12 +12 1018.7 969.0
Ю 4 9000 м слаб. морось 10/10 450 м
[St]
+13.3 +12.8 97 +12 +12 1018.7 969.0
Ю 4 9000 м слаб. морось 10/10 300 м
[St]
+13.4 +12.9 97 +12 +12 1018.7 969.0
ЮЗ 4 9000 м слаб. морось 10/10 300 м
[St]
+13.4 +12.9 97 +12 +12 1018.2 968.6
Ю 3 9000 м слаб. морось 10/10 300 м
[St]
+13.4 +13.0 97 +12 +12 1017.9 968.2
Ю 3 9000 м слаб. морось 10/10 300 м
[St]
+13.4 +12.9 97 +12 +12 1017.8 968.2 3
Ю 4 9000 м слаб. морось 10/10 300 м
[St]
+13.4 +12.9 97 +12 +12 1017.0 967.4
Местоположение метеостанции Кордова обсерватория (Аргентина): широта -31.40 долгота -64.20 высота над уровнем моря 424 м.
В архиве по умолчанию представлена погода в Кордова обсерватории за последнюю неделю. Архивные данные за месяц целиком и за предыдущие месяцы, начиная с января 2011 года, Вы можете получить, выбрав интересующий диапазон дат из раскрывающегося списка и нажав кнопку "Найти!".
*Определитесь, кто Вы:
Внимание! Время в таблицах - всемирное. Для получения местного времени необходимо прибавить поправку, которая равна -3 ч.
Некоторые строки с данными для отдельных станций могут быть выделены курсивом. Это означает, что фактические данные отсутствуют по различным причинам, а приведенные значения являются расчетными модельными данными для данного пункта наблюдений.
Смотрите также архив погоды в соседних городах и на ближайших метеорологических станциях:
Партнеры нашего сайта: Наклейки с логотипом на заказ https://stickeronline.ru/services/nakleyki-s-logotipom.      
Пояснения к столбцам:
  • Ветер - указаны скорость ветра в м/с - средняя за 10 мин, порывы в срок и между сроками (в фигурных скобках) и направление, откуда дует ветер: С - северный,
  • СВ - северо-восточный, В - восточный, ЮВ - юго-восточный, Ю - южный, ЮЗ - юго-западный, З - западный, СЗ - северо-западный.
  • Видимость - горизонтальная дальность видимости в метрах или километрах. При видимости от 1 до 10 км при отсутствии осадков обычно наблюдается дымка, при ухудшении видимости до 1 км и менее - туман. В сухую погоду видимость может ухудшаться дымом, пылью или мглою.
  • Явления - указаны атмосферные явления, наблюдавшиеся в срок или в последний час перед сроком; фигурными скобками обозначены явления, наблюдавшиеся между сроками (за 1-3 часа до срока); квадратными скобками обозначены град или гололедные отложения с указанием их диаметра в мм.
  • Облачность - указаны через наклонную черту общая и нижняя облачность в баллах и высота нижней границы облаков в метрах; квадратными скобками обозначены формы облаков: Ci - перистые, Cs - перисто-слоистые, Cc - перисто-кучевые, Ac - высококучевые, As - высокослоистые, Sc - слоисто-кучевые, Ns - слоисто-дождевые, Cu - кучевые, Cb - кучево-дождевые. Подробнее классификацию облаков см. в Атласе облаков (PDF).
  • T - Температура воздуха - температура, измеренная на высоте 2 м над землей.
  • Td - Температура точки росы - температура, при понижении до которой содержащийся в воздухе водяной пар достигнет насыщения.
  • f - Относительная влажность воздуха - влажноcть воздуха, измеренная на высоте 2 м над землей.
  • Te - Эффективная температура - температура, которую ощущает одетый по сезону человек в тени. Характеристика душности погоды. При расчете учитывается влияние влажности воздуха и скорости ветра на теплоощущения человека.
  • Tes - Эффективная температура на солнце - температура, которую ощущает человек, с поправкой на солнечный нагрев. Характеристика знойности погоды. Зависит от высоты солнца над горизонтом, облачности и скорости ветра. Ночью, в пасмурную погоду, а также при ветре 12 м/с и более поправка равна нулю.
  • P - Атмосферное давление - приведенное к уровню моря атмосферное давление.
  • Po - Атмосферное давление - измеренное на уровне метеостанции атмосферное давление.
  • Tmin - Минимальная температура - минимум температуры воздуха на высоте 2 м над землей.
  • Tmax - Максимальная температура - максимум температуры воздуха на высоте 2 м над землей.
  • R - Количество осадков - Количество выпавших осадков за период времени, мм. При наведении курсора мыши на число - период времени, за который выпало указанное количество осадков.
  • R24 - Количество осадков - Количество выпавших осадков за 24 часа, мм.
  • S - Снежный покров - Высота снежного покрова, см. При наведении курсора мыши на число - состояние снежного покрова и степень покрытия местности в баллах.